Location: Grisols
(45.0093°N, 3.1167°E)
Time: 05:25:53
(UTC+00:00)

USA 238 - Pass Details

Date: 21 October 2019
Orbit: 1026 x 1186 km, 63.4° (Epoch: 11 November)

Event Time Altitude Azimuth Distance (km) Brightness Sun altitude
Rises 18:57:20 0° 229° (SW) 3,774 7.2 -22.6°
Reaches altitude 10° 18:59:58 10° 233° (SW) 2,836 6.5 -23.1°
Maximum altitude 19:06:34 61° 313° (NW) 1,191 4.1 -24.2°
Enters shadow 19:12:38 14° 32° (NNE) 2,660 5.6 -25.3°
